When you browse on this site, cookies collect data to enhance your experience and personalize the content and advertising you see.
Visit our Privacy Policy to learn more. By continuing to use the site, you agree to this use of cookies and data.

Stündliche Wetter Machdia

Heute, 4 August, Dienstag

Zeit Temperatur Niederschläge Wind Luftdruck Luftfeuchtigkeit
00:00 +29°C° 0 mm 4 m/S 757 mmHg 68%
01:00 +29°C° 0 mm 2 m/S 757 mmHg 70%
02:00 +29°C° 0 mm 2 m/S 757 mmHg 69%
03:00 +30°C° 0 mm 3 m/S 757 mmHg 69%
04:00 +30°C° 0 mm 3 m/S 757 mmHg 69%
05:00 +30°C° 0 mm 4 m/S 757 mmHg 67%
06:00 +30°C° 0 mm 5 m/S 757 mmHg 65%
07:00 +30°C° 0 mm 6 m/S 758 mmHg 63%
08:00 +32°C° 0 mm 7 m/S 758 mmHg 58%
09:00 +33°C° 0 mm 7 m/S 758 mmHg 53%
10:00 +33°C° 0 mm 8 m/S 758 mmHg 48%
11:00 +34°C° 0 mm 8 m/S 758 mmHg 45%
12:00 +34°C° 0 mm 8 m/S 758 mmHg 42%
13:00 +35°C° 0 mm 7 m/S 758 mmHg 39%
14:00 +35°C° 0 mm 8 m/S 758 mmHg 39%
15:00 +35°C° 0 mm 8 m/S 758 mmHg 38%
16:00 +35°C° 0 mm 8 m/S 758 mmHg 37%
17:00 +33°C° 0 mm 8 m/S 758 mmHg 42%
18:00 +32°C° 0 mm 8 m/S 758 mmHg 46%
19:00 +31°C° 0 mm 9 m/S 758 mmHg 50%
20:00 +29°C° 0 mm 9 m/S 758 mmHg 53%
21:00 +28°C° 0 mm 9 m/S 759 mmHg 56%
22:00 +28°C° 0 mm 9 m/S 759 mmHg 59%
23:00 +27°C° 0 mm 8 m/S 759 mmHg 60%

Morgen, 5 August, Mittwoch

Zeit Temperatur Niederschläge Wind Luftdruck Luftfeuchtigkeit
00:00 +27°C° 0 mm 7 m/S 759 mmHg 61%
01:00 +26°C° 0 mm 6 m/S 759 mmHg 63%
02:00 +26°C° 0 mm 6 m/S 759 mmHg 62%
03:00 +24°C° 0 mm 6 m/S 759 mmHg 62%
04:00 +24°C° 0 mm 6 m/S 759 mmHg 62%
05:00 +26°C° 0 mm 7 m/S 759 mmHg 61%
06:00 +26°C° 0 mm 7 m/S 759 mmHg 59%
07:00 +27°C° 0 mm 8 m/S 759 mmHg 58%
08:00 +28°C° 0 mm 8 m/S 759 mmHg 52%
09:00 +29°C° 0 mm 7 m/S 759 mmHg 46%
10:00 +32°C° 0 mm 7 m/S 759 mmHg 41%
11:00 +32°C° 0 mm 7 m/S 759 mmHg 37%
12:00 +33°C° 0 mm 6 m/S 759 mmHg 33%
13:00 +34°C° 0 mm 5 m/S 759 mmHg 29%
14:00 +34°C° 0 mm 6 m/S 759 mmHg 31%
15:00 +34°C° 0 mm 6 m/S 758 mmHg 33%
16:00 +34°C° 0 mm 7 m/S 758 mmHg 35%
17:00 +32°C° 0 mm 7 m/S 758 mmHg 40%
18:00 +31°C° 0 mm 8 m/S 758 mmHg 46%
19:00 +29°C° 0 mm 8 m/S 758 mmHg 51%
20:00 +28°C° 0 mm 8 m/S 759 mmHg 55%
21:00 +28°C° 0 mm 7 m/S 759 mmHg 58%
22:00 +27°C° 0 mm 7 m/S 759 mmHg 61%
23:00 +27°C° 0 mm 6 m/S 759 mmHg 63%

übermorgen, 6 August, Donnerstag

Zeit Temperatur Niederschläge Wind Luftdruck Luftfeuchtigkeit
00:00 +26°C° 0 mm 6 m/S 759 mmHg 65%
01:00 +26°C° 0 mm 6 m/S 760 mmHg 67%
02:00 +24°C° 0 mm 6 m/S 759 mmHg 69%
03:00 +24°C° 0 mm 6 m/S 759 mmHg 71%
04:00 +23°C° 0 mm 6 m/S 759 mmHg 73%
05:00 +24°C° 0 mm 6 m/S 760 mmHg 70%
06:00 +26°C° 0 mm 6 m/S 760 mmHg 66%
07:00 +26°C° 0 mm 6 m/S 760 mmHg 62%
08:00 +28°C° 0 mm 6 m/S 760 mmHg 57%
09:00 +29°C° 0 mm 6 m/S 760 mmHg 51%
10:00 +32°C° 0 mm 6 m/S 760 mmHg 46%
11:00 +32°C° 0 mm 5 m/S 760 mmHg 43%
12:00 +33°C° 0 mm 5 m/S 760 mmHg 40%
13:00 +34°C° 0 mm 5 m/S 760 mmHg 37%
14:00 +34°C° 0 mm 5 m/S 760 mmHg 37%
15:00 +35°C° 0 mm 5 m/S 760 mmHg 37%
16:00 +35°C° 0 mm 6 m/S 760 mmHg 37%
17:00 +33°C° 0 mm 6 m/S 760 mmHg 45%
18:00 +32°C° 0 mm 7 m/S 760 mmHg 53%
19:00 +29°C° 0 mm 8 m/S 760 mmHg 61%
20:00 +28°C° 0 mm 7 m/S 760 mmHg 62%
21:00 +28°C° 0 mm 6 m/S 761 mmHg 64%
22:00 +27°C° 0 mm 5 m/S 761 mmHg 66%
23:00 +27°C° 0 mm 5 m/S 761 mmHg 68%

7 August, Freitag

Zeit Temperatur Niederschläge Wind Luftdruck Luftfeuchtigkeit
00:00 +26°C° 0 mm 5 m/S 761 mmHg 70%
01:00 +26°C° 0 mm 5 m/S 761 mmHg 72%
02:00 +26°C° 0 mm 5 m/S 761 mmHg 72%
03:00 +26°C° 0 mm 5 m/S 761 mmHg 73%
04:00 +24°C° 0 mm 6 m/S 761 mmHg 73%
05:00 +26°C° 0 mm 6 m/S 761 mmHg 69%
06:00 +27°C° 0 mm 6 m/S 761 mmHg 65%
07:00 +27°C° 0 mm 6 m/S 762 mmHg 61%
08:00 +29°C° 0 mm 6 m/S 762 mmHg 57%
09:00 +30°C° 0 mm 7 m/S 762 mmHg 53%
10:00 +32°C° 0 mm 7 m/S 762 mmHg 48%
11:00 +33°C° 0 mm 7 m/S 762 mmHg 46%
12:00 +34°C° 0 mm 6 m/S 762 mmHg 43%
13:00 +35°C° 0 mm 6 m/S 762 mmHg 41%
14:00 +35°C° 0 mm 6 m/S 761 mmHg 42%
15:00 +35°C° 0 mm 6 m/S 761 mmHg 43%
16:00 +35°C° 0 mm 6 m/S 761 mmHg 44%
17:00 +34°C° 0 mm 6 m/S 761 mmHg 48%
18:00 +32°C° 0 mm 6 m/S 761 mmHg 53%
19:00 +30°C° 0 mm 6 m/S 761 mmHg 57%
20:00 +30°C° 0 mm 7 m/S 762 mmHg 59%
21:00 +29°C° 0 mm 7 m/S 762 mmHg 60%
22:00 +28°C° 0 mm 7 m/S 762 mmHg 62%
23:00 +28°C° 0 mm 8 m/S 762 mmHg 62%

8 August, Samstag

Zeit Temperatur Niederschläge Wind Luftdruck Luftfeuchtigkeit
00:00 +28°C° 0 mm 8 m/S 762 mmHg 63%
01:00 +27°C° 0 mm 8 m/S 762 mmHg 63%
02:00 +27°C° 0 mm 8 m/S 761 mmHg 66%
03:00 +27°C° 0 mm 8 m/S 761 mmHg 69%
04:00 +27°C° 0 mm 7 m/S 761 mmHg 71%
05:00 +27°C° 0 mm 7 m/S 761 mmHg 70%
06:00 +28°C° 0 mm 7 m/S 761 mmHg 68%
07:00 +28°C° 0 mm 7 m/S 761 mmHg 67%
08:00 +30°C° 0 mm 7 m/S 761 mmHg 60%
09:00 +32°C° 0 mm 7 m/S 762 mmHg 53%
10:00 +33°C° 0 mm 7 m/S 762 mmHg 46%
11:00 +34°C° 0 mm 6 m/S 761 mmHg 42%
12:00 +35°C° 0 mm 6 m/S 761 mmHg 38%
13:00 +36°C° 0 mm 5 m/S 761 mmHg 34%
14:00 +36°C° 0 mm 5 m/S 761 mmHg 34%
15:00 +36°C° 0 mm 5 m/S 760 mmHg 34%
16:00 +36°C° 0 mm 5 m/S 760 mmHg 35%
17:00 +35°C° 0 mm 6 m/S 760 mmHg 41%
18:00 +33°C° 0 mm 6 m/S 760 mmHg 48%
19:00 +32°C° 0 mm 7 m/S 760 mmHg 54%
20:00 +30°C° 0 mm 7 m/S 760 mmHg 57%
21:00 +29°C° 0 mm 7 m/S 760 mmHg 60%
22:00 +28°C° 0 mm 7 m/S 760 mmHg 63%
23:00 +28°C° 0 mm 7 m/S 760 mmHg 64%

9 August, Sonntag

Zeit Temperatur Niederschläge Wind Luftdruck Luftfeuchtigkeit
00:00 +28°C° 0 mm 7 m/S 760 mmHg 65%
01:00 +27°C° 0 mm 6 m/S 760 mmHg 67%
02:00 +27°C° 0 mm 6 m/S 760 mmHg 68%
03:00 +26°C° 0 mm 6 m/S 759 mmHg 69%
04:00 +26°C° 0 mm 6 m/S 759 mmHg 70%
05:00 +27°C° 0 mm 6 m/S 759 mmHg 68%
06:00 +27°C° 0 mm 6 m/S 759 mmHg 66%
07:00 +28°C° 0 mm 6 m/S 759 mmHg 64%
08:00 +30°C° 0 mm 6 m/S 759 mmHg 56%
09:00 +32°C° 0 mm 6 m/S 760 mmHg 48%
10:00 +34°C° 0 mm 6 m/S 760 mmHg 40%
11:00 +35°C° 0 mm 6 m/S 760 mmHg 38%
12:00 +36°C° 0 mm 6 m/S 759 mmHg 36%
13:00 +38°C° 0 mm 6 m/S 759 mmHg 33%
14:00 +36°C° 0 mm 6 m/S 759 mmHg 35%
15:00 +36°C° 0 mm 6 m/S 759 mmHg 37%
16:00 +35°C° 0 mm 6 m/S 758 mmHg 39%
17:00 +34°C° 0 mm 6 m/S 758 mmHg 45%
18:00 +33°C° 0 mm 6 m/S 758 mmHg 52%
19:00 +30°C° 0 mm 6 m/S 758 mmHg 59%
20:00 +29°C° 0 mm 5 m/S 759 mmHg 64%
21:00 +28°C° 0 mm 4 m/S 759 mmHg 69%
22:00 +27°C° 0 mm 4 m/S 760 mmHg 74%
23:00 +27°C° 0 mm 3 m/S 760 mmHg 75%
Mehr zeigen